Погода Туапсе

Погода Туапсе : погода сейчас, прогноз погоды и архив. Всё, что Вы хотите узнать о погоде Туапсе!

Хотите узнать прогноз погоды Туапсе? Тогда Вам сюда: Погода Туапсе

Поиск расширенной информации на нашем сайте:

Другие новости

Новости СМИ2

Главная страница сайта

Новости сайта

03.07.2017

Напоминаем, что на нашем специализированном сайте Метеоцентр.Азия вы можете получить высокодетализированные автоматические прогнозы погоды по пунктам России, СНГ и мира в авиационном формате (включающие направление и скорость ветра, видимость, явления погоды, количество и форму облачности, нижнюю и верхнюю границу облачности).


Погода Туапсе - сегодня

Время (UTC), дата Ветер
(°,м/с) 
Видим.   Явления Облачность Т
(°С)
Тd
(°С)
f(%) Тe
(°С)
Pmin
(гПа)
dP
(гПа)
Po
(мм)
O2
(г/м3)
Тmin Tmax R s Состояние
почвы
06 19.08.17 050 (СВ) 20000 м    8/0 средняя, верхняя 
[Ac trans|Ci fib]
+28 +14.8 45 +36  1012.4  0.5  754  273           
09 19.08.17 270 (З) 20000 м    9/0 средняя, верхняя 
[Ac trans|Ci fib]
+30.2 +17.5 47 +43  1012.6  0.3  754  270           
12 19.08.17 230 (ЮЗ) 20000 м  {ливн. осадки}  3/3 1000 м 
[Cu med, cong]
+33.1 +18.6 42 +48  1012.3  -0.3  754  267           
15 19.08.17 050 (СВ) 3{12}  20000 м    3/1 1000 м средняя 
[Sc|Ac trans]
+27.8 +13.7 42 +34  1012.3  0.1  754  273    +33.8  0.0     
18 19.08.17 040 (СВ) 2{11}  10 км    ясно 
+26.2 +12.8 43 +31  1011.9  -0.3  754  275           
21 19.08.17 030 (СВ) 10 км    ясно 
+24.8 +13.6 50 +31  1012.1  0.1  754  276           
00 20.08.17 060 (СВ) 10 км    ясно 
+22.4 +14.7 62 +30  1011.9  -0.2  754  278           
03 20.08.17 050 (СВ) 20000 м    3/0 средняя 
[Ac trans]
+21.5 +14.3 64 +29  1012.1  0.2  754  279  +21.3        сухая 
06 20.08.17 060 (СВ) 20000 м    4/0 средняя, верхняя 
[Ac trans|Ci sp]
+26.5 +14.9 49 +35  1011.8  -0.3  754  274           
09 20.08.17 200 (Ю) 20000 м    9/3 1000 м средняя, верхняя 
[Cu med, cong|Ac trans|Ci sp]
+30.2 +20.2 55 +49  1012  0.4  754  269           
12 20.08.17 220 (ЮЗ) 20000 м    9/5 1000 м средняя, верхняя 
[Cu med, cong|Ac trans|Ci sp]
+31.8 +18.1 44 +46  1011.8  -0.2  754  268           
15 20.08.17 350 (С) 20000 м    8/5 1000 м средняя, верхняя 
[Cu med, cong|Ac trans|Cc]
+31.3 +14.6 36 +39  1010.1  -1.7  752  269    +33.1       
18 20.08.17 тихо ()   10 км    3/3 1000 м 
[Cu med, cong]
+27.9 +11.6 36 +31  1010.1  -0.1  752  273           
21 20.08.17 020 (С) 10 км    ясно 
+26.3 +12.2 42 +30  1009.5  -0.6  752  274           
00 21.08.17 050 (СВ) 10 км    ясно 
+24.2 +14.1 53 +31  1009.6  752  275           
03 21.08.17 050 (СВ) 20000 м    ясно 
+22.2 +15.1 64 +31  1009.5  0.1  752  277  +22        сухая 
06 21.08.17 070 (В) 20000 м    ясно 
+28.8 +14.7 42 +37  1009  -0.4  752  271           
09 21.08.17 230 (ЮЗ) 20000 м    ясно 
+33.5 +16.2 36 +44  1007.7  -1.2  751  266           
12 21.08.17 230 (ЮЗ) 20000 м    ясно 
+34.7 +12.8 27 +40  1005.6  -2  749  265           
15 21.08.17 250 (З) 20000 м    ясно 
+32 +17.3 42 +45  1003  -2.6  747  266    +35.2       
18 21.08.17 040 (СВ) 10 км    ясно 
+30.9 +12.5 32 +36  1002.2  -0.8  746  268           
21 21.08.17 090 (В) 10 км    6/0 верхняя 
[Ci]
+27.8 +17.5 54 +41  1003.4  1.1  747  269           
00 22.08.17 080 (В) 10 км    3/0 верхняя 
[Ci fib]
+26.8 +17.3 56 +40  1003.5  0.1  747  270           
03 22.08.17 200 (Ю) 3{10}  20000 м    10/8 1000 м кучево-дожд., верхняя 
[Cb cap|Ci sp]
+27.2 +23 78 +53  1006.1  2.6  749  268  +26.7        сухая 
06 22.08.17 250 (З) 2{10}  20000 м    10/8 1000 м кучево-дожд., средняя 
[Cb cap|Ac trans]
+27.4 +20.5 66 +47  1007.7  1.6  751  270           
Время (UTC), дата Ветер
(°,м/с) 
Видим.   Явления Облачность Т
(°С)
Тd
(°С)
f(%) Тe
(°С)
Pmin
(гПа)
dP
(гПа)
Po
(мм)
O2
(г/м3)
Тmin Tmax R s Состояние
почвы

Для получения пояснительной информации подведите курсор к названию столбца.

ПОГОДА Туапсе - архив

Всё, что Вы хотите узнать о погоде Туапсе - удобно и подробно!

Выберите нужную дату (начиная с 1 января 2015* года) и нажмите кнопку "Найти".
Будут отображены архивные сводки погоды по пункту Туапсе, начиная с указанной даты.


Отображать данные в формате CSV (для использования в таблицах Excel)


Внимание! Наш архив погоды предназначен исключительно для личного некоммерческого использования в познавательных целях. Если Вам необходимы официальные справки о состоянии погоды (для производственных, юридических, коммерческих и т.п. целей), обращайтесь в органы Росгидромета.

*Примечание: данная дата относится к архиву по метеостанциям СССР (Россия, СНГ, Балтия).
Архив по метеостанциям Зарубежной Европы и Азии (кроме Китая) хранится 10 дней, по другим регионам земного шара (Китай, Африка, Америка, Австралия, Океания) - 1 день.

Туапсе - район местоположения метеостанции


Название, широта, долгота, высота метеостанции:
Туапсе 44.1°ш. 39.1°д. 61 м над ур. моря [Российская Федерация]

Дополнительная информация

В oтличие oт бoльшинства пoгoдных сайтoв мы публикуем пoдрoбную метеoинфoрмацию в детальнoм прoфессиoнальнoм фoрмате.

Характеристики температуры и влажнoсти вoздуха измеряются на высoте 2 м в тени вдали oт зданий и деревьев.
Скoрoсть ветра измеряется на высoте 10 м (на урoвне рoста челoвека скoрoсть ветра ниже в 1.5-2 раза). Если метеoстанция нахoдится в гoрoде или в лесу, тo скoрoсть ветра занижена на 2-4 м/с пo сравнению с oткрытым местoм. Скoрoсть ветра над акватoриями крупных рек и oзёр, а также на вершинах хoлмoв на 2-5 м/с выше, чем в oбычных услoвиях.
Атмoсфернoе давление в разных тoчках местнoсти мoжет значительнo oтличаться oт давления на метеoстанции, в зависимoсти oт услoвий рельефа (при пoдъёме на 10 м давление пoнижается примернo на 1 мм рт.ст.).